カタログに戻る

METEOR 2-20 DEB

運用中PO
NORAD 44700·DEBRIS·🇷🇺 Russia

打ち上げ Sep 28, 1990 から Plesetsk Cosmodrome

Loading…

次のパス (今後24時間)

TLE

経年Source: Space-Track

元期: Sep 9, 2026, 17:35 UTC

1 44700U 90086E   26252.73264280  .00002359  00000-0  13268-2 0  9998
2 44700  82.5044  44.6415 0009799 199.7659 221.6570 14.10082196652349

AllMySatでMETEOR 2-20 DEBをリアルタイム追跡

Download on the App Store